Forside
METAR-TAF:

METAR-TAF

Lufthavne :

Marshfield Municipal Airport

Marshfield, Wisconsin, USA

Breddekreds: 44-38-17N, længdekreds: 090-11-15W, højde: 389 m

Aktuelle vejr

Denne rapport blev lavet for 15 minutter siden, kl. 23:54 UTC
Vind 3 kt fra sydvest
Temperatur 29°C
Fugtighed 52%
Tryk 1016 hPa
Sigt: 16.1 km
skyfri

METAR: KMFI 042354Z AUTO 23003KT 10SM CLR 29/18 A3000 RMK AO2 SLP153 T02940178 10311 20294 56012

Tid: 19:09 (00:09 UTC)


TAF: fraværende

Vejrobservationer og prognoser fra mere end 4000 lufthavne (METAR og TAF).

De gule og røde prikker repræsenterer de meteorologiske stationer.

Flyt musen over at se navnet på stationen.

Så klik over at se vejr observationer og prognoser.

At skifte det kort: Klik på de grønne knapper med et sort kors for at zoome ind; på den grønne knap med en bindestreg for at zoome ud; eller på de grønne pile for tilstødende kort.


METAR-TAF: